�N����,����,�~����,�C��,���x,�C��,����,���ϕ���,�ő�u�ԕ���,�ő厞����,���˗�,�I�_���x,�n�����x,�ő啗���N��,DTYPE
"19/05/04","00:10",0.0,14.5,71.9,1010.7,336.1,3.2,4.8,332.0,0.00,9.5,16.3,"00:00:08",1
"19/05/04","00:20",0.0,14.3,73.4,1010.7,337.8,3.1,4.9,345.0,0.00,9.7,16.3,"00:12:24",1
"19/05/04","00:30",0.0,14.2,75.6,1010.9,335.8,3.0,5.5,333.8,0.00,10.0,16.5,"00:29:52",1
"19/05/04","00:40",0.0,14.2,76.3,1011.2,335.5,3.1,5.5,328.0,0.00,10.1,16.2,"00:37:20",1
"19/05/04","00:50",0.0,14.2,77.0,1010.9,333.6,3.9,7.8,328.6,0.00,10.3,16.2,"00:49:06",1
"19/05/04","01:00",0.0,14.1,77.9,1010.7,335.8,4.1,7.4,331.7,0.00,10.3,16.2,"00:54:42",1
"19/05/04","01:10",0.0,14.0,78.7,1010.9,332.6,3.6,6.2,336.3,0.00,10.4,16.1,"01:05:28",1
"19/05/04","01:20",0.0,13.9,79.4,1010.9,331.3,3.9,6.3,341.5,0.00,10.4,16.1,"01:18:40",1
"19/05/04","01:30",0.0,13.7,79.6,1010.9,332.9,3.5,6.4,340.2,0.00,10.3,16.2,"01:20:40",1
"19/05/04","01:40",0.0,13.6,80.2,1010.9,332.4,3.4,5.4,328.6,0.00,10.3,16.0,"01:35:12",1
"19/05/04","01:50",0.0,13.5,81.1,1010.7,332.9,3.7,5.4,338.7,0.00,10.4,16.0,"01:45:36",1
"19/05/04","02:00",0.0,13.3,81.9,1010.9,333.7,3.4,6.4,333.2,0.00,10.3,16.0,"01:59:38",1
"19/05/04","02:10",0.0,13.4,81.9,1010.9,333.9,4.4,7.3,345.0,0.00,10.4,15.8,"02:03:44",1
"19/05/04","02:20",0.0,13.5,82.0,1010.7,329.8,3.7,6.8,328.3,0.00,10.5,15.7,"02:14:26",1
"19/05/04","02:30",0.0,13.3,82.4,1011.2,330.0,3.0,4.8,327.1,0.00,10.4,16.0,"02:28:56",1
"19/05/04","02:40",0.0,13.1,83.0,1010.9,328.8,3.1,5.4,330.6,0.00,10.3,15.7,"02:30:40",1
"19/05/04","02:50",0.0,13.0,83.8,1011.2,331.8,3.5,5.8,340.3,0.00,10.4,15.6,"02:42:00",1
"19/05/04","03:00",0.0,12.9,84.7,1010.9,332.2,3.9,6.0,332.5,0.00,10.4,15.5,"02:53:22",1
"19/05/04","03:10",0.0,12.8,85.3,1011.2,334.2,3.9,6.3,330.8,0.00,10.4,15.5,"03:04:32",1
"19/05/04","03:20",0.0,12.7,85.7,1011.2,334.7,4.6,7.2,336.9,0.00,10.4,15.4,"03:18:02",1
"19/05/04","03:30",0.0,12.7,86.2,1011.2,335.1,4.6,6.8,328.3,0.00,10.5,15.5,"03:29:06",1
"19/05/04","03:40",0.0,12.6,86.3,1011.4,335.4,4.2,7.3,344.0,0.00,10.4,15.7,"03:37:24",1
"19/05/04","03:50",0.0,12.4,86.6,1011.2,334.3,3.7,6.5,336.6,0.00,10.3,15.3,"03:42:42",1
"19/05/04","04:00",0.0,12.4,86.7,1011.6,334.4,5.1,8.3,317.7,0.00,10.3,15.3,"03:55:04",1
"19/05/04","04:10",0.0,12.3,87.1,1011.4,338.7,4.2,7.1,337.3,0.00,10.3,15.3,"04:09:52",1
"19/05/04","04:20",0.0,12.2,87.3,1011.9,335.6,4.5,7.5,336.9,0.00,10.2,15.2,"04:10:40",1
"19/05/04","04:30",0.0,12.1,87.5,1011.6,334.0,4.4,8.1,344.3,0.00,10.1,15.4,"04:28:04",1
"19/05/04","04:40",0.0,12.2,87.9,1011.6,333.7,5.0,8.0,338.7,0.00,10.3,15.2,"04:34:34",1
"19/05/04","04:50",0.0,12.1,88.1,1011.6,335.1,4.4,7.1,341.3,0.00,10.2,15.2,"04:43:38",1
"19/05/04","05:00",0.0,12.0,88.4,1011.9,331.9,4.7,7.4,335.6,0.00,10.2,15.1,"04:54:48",1
"19/05/04","05:10",0.0,11.9,88.9,1012.1,332.9,4.5,7.1,339.0,0.00,10.2,15.0,"05:01:46",1
"19/05/04","05:20",0.0,11.8,89.3,1011.9,334.0,4.6,6.7,321.0,0.00,10.1,15.0,"05:12:24",1
"19/05/04","05:30",0.0,11.8,89.8,1012.3,332.2,4.2,6.4,331.6,0.00,10.2,15.0,"05:22:32",1
"19/05/04","05:40",0.0,11.8,90.0,1012.1,332.6,3.6,6.2,345.7,0.00,10.3,14.8,"05:33:12",1
"19/05/04","05:50",0.0,11.9,90.0,1012.3,328.3,4.5,6.4,335.5,0.00,10.4,15.0,"05:44:48",1
"19/05/04","06:00",0.0,11.9,90.3,1012.6,328.1,4.1,6.8,345.0,0.00,10.4,14.7,"05:59:36",1
"19/05/04","06:10",0.0,12.1,90.3,1012.6,329.5,4.4,6.0,334.4,0.00,10.6,14.7,"06:01:12",1
"19/05/04","06:20",0.0,12.2,90.1,1012.8,330.8,4.0,6.6,326.7,0.01,10.7,14.8,"06:19:52",1
"19/05/04","06:30",0.0,12.4,89.7,1012.8,327.9,3.2,5.1,328.0,0.02,10.8,14.8,"06:21:04",1
"19/05/04","06:40",0.0,12.5,89.2,1013.0,328.7,3.4,5.8,347.3,0.03,10.8,14.7,"06:34:40",1
"19/05/04","06:50",0.0,12.8,88.5,1013.3,330.8,3.2,6.4,339.2,0.04,11.0,14.8,"06:49:28",1
"19/05/04","07:00",0.0,12.9,87.7,1013.5,329.8,4.0,5.9,339.1,0.06,11.0,14.8,"06:51:28",1
"19/05/04","07:10",0.0,13.0,86.4,1013.8,324.1,4.0,7.8,332.7,0.08,10.8,14.8,"07:05:20",1
"19/05/04","07:20",0.0,13.5,84.8,1014.0,327.3,4.0,6.6,336.0,0.10,11.0,14.7,"07:14:56",1
"19/05/04","07:30",0.0,13.7,83.7,1013.8,326.8,3.6,5.6,334.0,0.12,11.0,14.9,"07:29:12",1
"19/05/04","07:40",0.0,14.0,82.5,1014.0,322.7,3.2,4.9,327.6,0.15,11.1,15.0,"07:38:00",1
"19/05/04","07:50",0.0,14.4,81.4,1013.5,330.4,3.6,6.0,326.8,0.18,11.3,15.1,"07:48:16",1
"19/05/04","08:00",0.0,14.5,79.1,1013.5,332.4,3.6,7.2,337.5,0.20,11.0,15.0,"07:59:28",1
"19/05/04","08:10",0.0,15.3,77.6,1013.5,332.6,3.4,5.5,343.0,0.23,11.5,15.3,"08:05:20",1
"19/05/04","08:20",0.0,15.7,74.6,1013.8,334.6,3.1,6.4,341.7,0.25,11.2,15.0,"08:19:28",1
"19/05/04","08:30",0.0,16.3,72.9,1013.8,334.3,2.6,4.2,336.9,0.28,11.5,15.2,"08:24:48",1
"19/05/04","08:40",0.0,16.8,70.0,1013.8,329.6,2.8,5.1,340.1,0.30,11.3,15.4,"08:31:20",1
"19/05/04","08:50",0.0,17.5,67.4,1013.5,328.1,2.3,5.1,328.1,0.33,11.4,15.7,"08:40:16",1
"19/05/04","09:00",0.0,17.9,66.2,1013.3,324.0,2.2,4.0,349.6,0.36,11.6,15.6,"08:50:24",1
"19/05/04","09:10",0.0,18.3,62.4,1013.3,326.2,2.6,4.8,330.1,0.38,11.0,16.0,"09:09:12",1
"19/05/04","09:20",0.0,18.9,60.7,1013.0,312.8,1.7,4.5,331.3,0.40,11.2,16.0,"09:11:04",1
"19/05/04","09:30",0.0,19.3,59.9,1012.8,267.2,1.5,3.4,347.7,0.43,11.4,16.1,"09:20:32",1
"19/05/04","09:40",0.0,20.1,59.2,1012.6,176.4,0.8,2.1,200.3,0.45,11.9,16.4,"09:30:24",1
"19/05/04","09:50",0.0,20.6,55.6,1012.3,171.0,0.8,2.0,52.9,0.47,11.5,16.7,"09:40:02",1
"19/05/04","10:00",0.0,20.8,54.4,1012.1,150.1,1.1,4.0,113.8,0.49,11.3,16.9,"09:59:52",1
"19/05/04","10:10",0.0,20.8,53.1,1011.9,154.8,1.8,3.4,100.9,0.51,10.9,17.2,"10:01:20",1
"19/05/04","10:20",0.0,21.1,49.9,1012.1,142.9,1.1,2.4,124.1,0.53,10.3,17.6,"10:10:56",1
"19/05/04","10:30",0.0,21.8,50.5,1011.6,138.0,1.7,3.4,113.9,0.54,11.1,17.8,"10:27:20",1
"19/05/04","10:40",0.0,22.6,46.7,1011.4,160.6,1.8,3.3,132.2,0.55,10.7,17.8,"10:36:40",1
"19/05/04","10:50",0.0,23.0,43.9,1011.2,152.0,1.7,3.4,191.1,0.57,10.1,18.4,"10:48:32",1
"19/05/04","11:00",0.0,22.9,35.9,1011.4,112.1,1.6,3.5,123.1,0.58,7.1,18.6,"10:50:08",1
"19/05/04","11:10",0.0,23.5,31.4,1010.9,200.8,1.5,3.5,219.0,0.59,5.6,18.8,"11:08:32",1
"19/05/04","11:20",0.0,24.5,32.5,1010.4,291.2,1.5,5.1,337.5,0.60,7.0,19.2,"11:17:20",1
"19/05/04","11:30",0.0,24.9,27.4,1010.4,348.5,1.6,3.4,11.4,0.60,4.9,19.3,"11:24:16",1
"19/05/04","11:40",0.0,24.6,27.0,1010.4,3.1,2.8,6.4,330.9,0.61,4.4,19.5,"11:38:48",1
"19/05/04","11:50",0.0,24.9,27.8,1010.2,345.8,2.7,5.0,353.2,0.62,5.1,19.8,"11:48:40",1
"19/05/04","12:00",0.0,25.4,26.3,1009.7,346.3,2.7,6.7,353.7,0.62,4.7,19.9,"11:58:40",1
"19/05/04","12:10",0.0,25.9,24.9,1009.7,29.4,1.3,4.4,37.5,0.63,4.4,20.2,"12:01:12",1
"19/05/04","12:20",0.0,26.1,26.3,1010.0,16.1,1.7,4.0,347.4,0.63,5.3,20.5,"12:15:12",1
"19/05/04","12:30",0.0,25.9,25.7,1009.7,87.9,1.7,4.5,335.4,0.63,4.8,20.8,"12:29:36",1
"19/05/04","12:40",0.0,25.2,25.3,1009.7,348.5,4.0,7.8,351.1,0.63,4.0,20.8,"12:34:16",1
"19/05/04","12:50",0.0,25.8,25.7,1009.7,346.8,3.4,7.2,345.1,0.63,4.7,21.0,"12:45:04",1
"19/05/04","13:00",0.0,25.4,22.6,1009.3,351.6,3.2,7.7,354.2,0.63,2.6,21.2,"12:57:52",1
"19/05/04","13:10",0.0,26.0,21.1,1009.5,5.7,2.5,6.2,322.9,0.62,2.1,21.4,"13:02:24",1
"19/05/04","13:20",0.0,26.0,20.4,1009.3,353.3,3.0,5.1,343.7,0.61,1.6,21.3,"13:12:32",1
"19/05/04","13:30",0.0,26.4,22.6,1009.3,357.5,2.1,5.9,349.8,0.60,3.4,21.5,"13:23:28",1
"19/05/04","13:40",0.0,26.4,19.1,1009.5,17.4,2.0,4.9,20.6,0.59,1.1,21.7,"13:33:20",1
"19/05/04","13:50",0.0,26.3,21.1,1009.3,344.1,2.2,5.4,334.0,0.59,2.4,21.7,"13:48:16",1
"19/05/04","14:00",0.0,26.4,22.4,1009.3,29.8,2.1,6.7,343.2,0.57,3.3,21.7,"13:58:48",1
"19/05/04","14:10",0.0,26.6,22.3,1009.5,9.8,1.8,4.0,25.5,0.56,3.4,21.8,"14:02:32",1
"19/05/04","14:20",0.0,26.4,20.6,1009.5,31.7,2.1,5.1,22.8,0.55,2.1,21.8,"14:19:04",1
"19/05/04","14:30",0.0,26.7,20.2,1009.5,4.9,2.2,5.8,1.7,0.54,2.1,21.7,"14:21:04",1
"19/05/04","14:40",0.0,26.1,20.8,1009.3,348.1,3.7,6.5,351.3,0.52,2.0,21.8,"14:34:16",1
"19/05/04","14:50",0.0,26.1,21.0,1009.3,353.6,2.7,5.1,346.0,0.51,2.1,21.6,"14:41:04",1
"19/05/04","15:00",0.0,26.5,20.5,1009.0,347.0,2.6,5.8,358.5,0.49,2.1,21.8,"14:50:32",1
"19/05/04","15:10",0.0,26.3,20.3,1008.8,354.8,2.3,5.2,357.5,0.47,1.8,21.9,"15:04:48",1
"19/05/04","15:20",0.0,26.3,17.8,1008.8,26.1,2.0,4.4,314.4,0.45,0.0,21.8,"15:18:48",1
"19/05/04","15:30",0.0,25.9,18.9,1008.8,340.0,3.5,7.4,334.7,0.43,0.5,21.8,"15:25:36",1
"19/05/04","15:40",0.0,26.1,17.4,1008.3,340.3,2.2,5.7,344.6,0.41,-0.5,21.8,"15:32:08",1
"19/05/04","15:50",0.0,25.9,16.9,1008.3,343.1,2.6,6.6,320.8,0.39,-1.0,21.8,"15:43:36",1
"19/05/04","16:00",0.0,26.1,16.9,1008.6,349.4,2.7,5.0,350.3,0.37,-0.9,21.9,"15:51:20",1
"19/05/04","16:10",0.0,26.1,17.0,1009.0,358.7,3.0,6.0,338.4,0.34,-0.8,21.8,"16:01:44",1
"19/05/04","16:20",0.0,26.2,16.5,1009.3,4.8,2.5,6.2,351.3,0.32,-1.1,21.9,"16:11:36",1
"19/05/04","16:30",0.0,25.9,19.1,1008.8,346.5,3.1,8.0,324.0,0.29,0.6,21.6,"16:27:28",1
"19/05/04","16:40",0.0,25.7,18.4,1008.8,344.2,3.1,5.6,336.3,0.27,0.0,21.7,"16:37:20",1
"19/05/04","16:50",0.0,25.8,17.8,1009.0,347.7,2.7,5.9,337.3,0.24,-0.4,21.6,"16:44:56",1
"19/05/04","17:00",0.0,25.7,19.2,1009.5,350.7,2.0,4.9,336.1,0.21,0.6,21.5,"16:58:24",1
"19/05/04","17:10",0.0,25.4,19.7,1009.3,330.7,2.6,5.6,326.8,0.19,0.7,21.4,"17:07:44",1
"19/05/04","17:20",0.0,25.2,18.3,1009.5,331.1,2.2,4.9,314.6,0.16,-0.5,21.3,"17:18:40",1
"19/05/04","17:30",0.0,25.1,19.2,1009.5,6.9,2.2,5.0,321.7,0.13,0.1,21.3,"17:20:24",1
"19/05/04","17:40",0.0,24.8,19.1,1009.5,355.8,1.8,4.9,336.2,0.11,-0.3,21.1,"17:39:36",1
"19/05/04","17:50",0.0,24.6,18.4,1010.0,359.3,1.8,4.2,3.2,0.09,-0.9,21.1,"17:44:40",1
"19/05/04","18:00",0.0,24.3,19.1,1010.0,350.9,1.7,3.7,349.5,0.04,-0.7,20.9,"17:55:04",1
"19/05/04","18:10",0.0,23.7,21.6,1010.0,350.4,2.2,4.2,355.2,0.01,0.5,20.8,"18:01:20",1
"19/05/04","18:20",0.0,23.1,19.7,1010.2,350.0,1.8,4.3,33.5,0.00,-1.2,20.8,"18:12:32",1
"19/05/04","18:30",0.0,22.6,20.6,1010.4,357.7,2.0,3.5,343.5,0.00,-1.0,20.7,"18:21:36",1
"19/05/04","18:40",0.0,22.1,20.7,1010.4,354.5,1.7,4.0,340.7,0.00,-1.4,20.4,"18:36:00",1
"19/05/04","18:50",0.0,20.9,25.4,1010.4,336.4,1.2,3.3,2.1,0.00,0.4,20.3,"18:40:08",1
"19/05/04","19:00",0.0,19.5,28.8,1010.9,319.6,1.3,2.5,331.7,0.00,1.0,20.1,"18:52:56",1
"19/05/04","19:10",0.0,18.4,35.1,1011.2,331.7,1.2,2.0,313.0,0.00,2.8,19.9,"19:06:48",1
"19/05/04","19:20",0.0,18.0,34.5,1011.4,348.0,1.3,2.9,337.9,0.00,2.2,19.8,"19:16:32",1
"19/05/04","19:30",0.0,17.5,35.1,1011.4,344.3,1.3,2.7,342.0,0.00,2.0,19.7,"19:24:56",1
"19/05/04","19:40",0.0,17.3,33.7,1011.4,340.5,1.6,3.2,342.5,0.00,1.2,19.5,"19:33:04",1
"19/05/04","19:50",0.0,16.9,33.9,1011.9,319.7,1.0,2.5,351.1,0.00,0.9,19.4,"19:41:28",1
"19/05/04","20:00",0.0,16.2,36.8,1011.9,296.2,0.7,1.7,339.5,0.00,1.5,19.1,"19:58:00",1
"19/05/04","20:10",0.0,15.6,38.7,1012.1,326.9,0.6,1.4,307.4,0.00,1.6,18.8,"20:00:48",1
"19/05/04","20:20",0.0,15.0,42.6,1012.3,235.0,0.7,1.4,245.3,0.00,2.4,18.7,"20:19:20",1
"19/05/04","20:30",0.0,15.7,38.6,1012.3,278.6,1.1,2.1,242.3,0.00,1.7,18.7,"20:22:48",1
"19/05/04","20:40",0.0,15.8,37.5,1012.3,263.7,1.0,1.8,311.8,0.00,1.4,18.5,"20:39:04",1
"19/05/04","20:50",0.0,15.7,38.3,1012.8,306.6,1.2,2.2,335.6,0.00,1.6,18.3,"20:44:48",1
"19/05/04","21:00",0.0,15.2,39.6,1013.0,300.5,1.2,2.9,342.5,0.00,1.6,18.2,"20:50:02",1
"19/05/04","21:10",0.0,15.0,42.3,1013.0,329.8,2.5,4.3,314.5,0.00,2.3,18.0,"21:09:20",1
"19/05/04","21:20",0.0,14.6,43.2,1013.5,346.1,1.2,2.7,313.5,0.00,2.3,17.8,"21:10:56",1
"19/05/04","21:30",0.0,13.9,46.8,1013.5,269.6,1.2,2.2,238.6,0.00,2.8,17.8,"21:23:28",1
"19/05/04","21:40",0.0,13.9,46.8,1014.0,309.2,1.3,2.1,261.7,0.00,2.8,17.7,"21:36:52",1
"19/05/04","21:50",0.0,13.5,48.1,1013.8,328.4,2.0,2.8,338.7,0.00,2.8,17.3,"21:42:42",1
"19/05/04","22:00",0.0,12.8,51.1,1014.2,315.6,1.8,2.8,333.4,0.00,3.0,17.3,"21:54:06",1
"19/05/04","22:10",0.0,12.5,52.6,1013.8,296.3,1.3,2.5,323.7,0.00,3.1,17.2,"22:00:02",1
"19/05/04","22:20",0.0,12.5,53.6,1013.8,306.2,1.6,2.5,309.7,0.00,3.4,17.3,"22:19:22",1
"19/05/04","22:30",0.0,12.2,53.6,1013.8,299.0,1.6,2.2,306.0,0.00,3.1,17.2,"22:22:56",1
"19/05/04","22:40",0.0,12.6,52.0,1014.0,310.5,2.2,3.1,328.1,0.00,3.1,16.9,"22:32:16",1
"19/05/04","22:50",0.0,12.3,52.4,1014.0,282.0,1.6,2.0,284.0,0.00,2.9,16.7,"22:49:10",1
"19/05/04","23:00",0.0,12.1,52.6,1014.0,291.0,1.5,2.0,307.0,0.00,2.8,16.7,"22:51:16",1
"19/05/04","23:10",0.0,12.1,53.3,1014.0,298.3,1.8,3.2,315.5,0.00,2.9,16.5,"23:05:04",1
"19/05/04","23:20",0.0,11.9,53.5,1014.0,305.8,2.0,2.9,317.2,0.00,2.8,16.4,"23:11:34",1
"19/05/04","23:30",0.0,12.1,53.8,1013.8,304.6,2.5,4.1,335.2,0.00,3.1,16.4,"23:24:44",1
"19/05/04","23:40",0.0,12.0,53.0,1013.8,290.8,1.6,3.1,312.7,0.00,2.8,16.4,"23:30:08",1
"19/05/04","23:50",0.0,11.8,53.4,1013.8,289.5,1.8,2.5,308.7,0.00,2.7,16.1,"23:40:42",1
"19/05/04","24:00",0.0,11.8,54.4,1013.5,293.9,1.8,3.4,319.2,0.00,2.9,16.1,"23:58:30",1
